Home > Weather > Hangzhou > Past weeks

Flag for China Weather for the Past 2 Weeks in Hangzhou, Zhejiang, China

Now
54 °F

Sunny.


Feels Like: 52 °F
Forecast: 27 / 60 °F
Wind: 6 mph from West

Location: Hangzhou Airport

Current Time: Feb 7, 2016 at 4:50:07 PM

Latest Report: Feb 7, 2016 at 4:30 PM


Visibility: 10 mi

Pressure: 30.18 "Hg

Humidity: 24%

Dew point: 18 °F

Location of HangzhouLocation

Historic Weather in Hangzhou — Graph

°F

Hangzhou Temperature Yesterday

Maximum temperature yesterday: 46 °F (at 1:00 PM)
Minimum temperature yesterday: 34 °F (at 12:30 AM)
Average temperature yesterday: 40 °F

High & Low Weather Summary for the Past Weeks

 TemperatureHumidityPressure
High54 °F (Feb 7, 1:00 PM)100% (Jan 27, 2:30 PM)30.83 "Hg (Jan 27, 2:30 PM)
Low18 °F (Jan 25, 4:30 AM)22% (Feb 7, 1:00 PM)30.12 "Hg (Jan 28, 1:30 PM)
Average36 °F72%30.45 "Hg
* Reported Jan 23 3:00 PM — Feb 7 3:30 PM, Hangzhou, Weather by CustomWeather, © 2016

Note: Actual official high and low records may vary slightly from our data, if they occured in-between our weather recording intervals... More about our weather records

Advertising

Hangzhou Weather History for the Previous 24 Hours

 ConditionsComfort  
Time TempWeatherWind HumidityBarometerVisibility
3:30 PM
Sun, Feb 7
54 °FSunny.10 mph24%30.18 "Hg10 mi
3:00 PM54 °FPassing clouds.10 mph24%30.18 "HgN/A
2:30 PM54 °FPassing clouds.13 mph24%30.18 "HgN/A
2:00 PM54 °FPassing clouds.13 mph24%30.21 "HgN/A
1:30 PM52 °FPassing clouds.13 mph24%30.21 "HgN/A
1:00 PM54 °FSunny.13 mph22%30.24 "Hg10 mi
12:30 PM52 °FSunny.10 mph26%30.24 "Hg10 mi
12:00 PM50 °FPassing clouds.8 mph30%30.27 "HgN/A
11:30 AM48 °FSunny.10 mph32%30.30 "Hg10 mi
11:00 AM46 °FPassing clouds.13 mph37%30.33 "HgN/A
10:30 AM45 °FClear.8 mph39%30.36 "Hg5 mi
10:00 AM41 °FClear.10 mph45%30.36 "Hg5 mi
9:30 AM39 °FClear.8 mph52%30.36 "Hg5 mi
9:00 AM36 °FClear.6 mph65%30.36 "Hg5 mi
8:00 AM32 °FClear.3 mph80%30.36 "Hg4 mi
7:30 AM28 °FClear.3 mph86%30.36 "Hg4 mi
7:00 AM28 °FClear.3 mph80%30.36 "Hg4 mi
6:30 AM28 °FClear.3 mph80%30.33 "Hg10 mi
5:00 AM28 °FClear.3 mph80%30.36 "Hg10 mi
4:30 AM30 °FClear.3 mph80%30.36 "Hg10 mi
4:00 AM32 °FClear.1 mph75%30.36 "Hg10 mi
3:30 AM30 °FClear.3 mph80%30.39 "Hg10 mi
3:00 AM30 °FClear.3 mph80%30.39 "Hg10 mi
2:30 AM30 °FClear.1 mph80%30.42 "Hg10 mi
2:00 AM32 °FClear.3 mph69%30.42 "Hg10 mi
1:30 AM32 °FClear.3 mph69%30.45 "Hg10 mi
1:00 AM32 °FClear.3 mph69%30.45 "Hg10 mi
12:30 AM34 °FClear.3 mph60%30.45 "Hg10 mi
12:00 AM34 °FClear.3 mph60%30.45 "Hg10 mi
11:30 PM
Sat, Feb 6
36 °FClear.3 mph56%30.45 "Hg10 mi
11:00 PM36 °FClear.1 mph52%30.45 "Hg10 mi
10:30 PM39 °FPassing clouds.3 mph42%30.45 "HgN/A
10:00 PM39 °FPassing clouds.6 mph39%30.45 "HgN/A
9:30 PM39 °FPassing clouds.6 mph39%30.45 "HgN/A
9:00 PM41 °FPassing clouds.6 mph36%30.48 "HgN/A
8:30 PM41 °FClear.3 mph39%30.48 "Hg5 mi
8:00 PM39 °FClear.3 mph48%30.45 "Hg5 mi
7:30 PM39 °FClear.6 mph48%30.45 "Hg5 mi
7:00 PM41 °FClear.6 mph49%30.45 "Hg5 mi
6:30 PM39 °FClear.1 mph52%30.45 "Hg5 mi
6:00 PM41 °FClear.6 mph49%30.42 "Hg4 mi
5:30 PM43 °FClear.6 mph46%30.42 "Hg4 mi
5:00 PM43 °FPassing clouds.10 mph46%30.42 "HgN/A
4:30 PM45 °FPassing clouds.13 mph42%30.42 "HgN/A
4:00 PM46 °FSunny.15 mph25%30.39 "Hg10 mi
Weather by CustomWeather, © 2016

See weather overviewHow to use our weather pages